Location: T�bingen+AIT
(48.5342°N, 9.0700°E)
Time: 20:26:58
(UTC+02:00)

Terra - Pass Details

Date: 14 September 2017
Orbit: 702 x 703 km, 98.2° (Epoch: 19 September)

Event Time Altitude Azimuth Distance (km) Brightness Sun altitude
Exits shadow 23:33:27 33° 331° (NNW) 1,178 3.4 -33.5°
Drops below altitude 10° 23:36:07 10° 341° (NNW) 2,179 5.1 -33.7°
Sets 23:38:25 0° 344° (NNW) 3,102 6.1 -33.9°
